Year,Month,Day,Hour,Minute,Value (Times are PST for temperature in C)
2015,05,04,00,00,8.80
2015,05,04,00,01,8.80
2015,05,04,00,02,8.80
2015,05,04,00,03,8.80
2015,05,04,00,04,8.80
2015,05,04,00,05,8.70
2015,05,04,00,06,8.70
2015,05,04,00,07,8.70
2015,05,04,00,08,8.70
2015,05,04,00,09,8.70
2015,05,04,00,10,8.70
2015,05,04,00,11,8.70
2015,05,04,00,12,8.70
2015,05,04,00,13,8.70
2015,05,04,00,14,8.70
2015,05,04,00,15,8.70
2015,05,04,00,16,8.60
2015,05,04,00,17,8.60
2015,05,04,00,18,8.60
2015,05,04,00,19,8.60
2015,05,04,00,20,8.60
2015,05,04,00,21,8.60
2015,05,04,00,22,8.60
2015,05,04,00,23,8.50
2015,05,04,00,24,8.50
2015,05,04,00,25,8.50
2015,05,04,00,26,8.50
2015,05,04,00,27,8.50
2015,05,04,00,28,8.50
2015,05,04,00,29,8.50
2015,05,04,00,30,8.50
2015,05,04,00,31,8.40
2015,05,04,00,32,8.40
2015,05,04,00,33,8.40
2015,05,04,00,34,8.40
2015,05,04,00,35,8.40
2015,05,04,00,36,8.30
2015,05,04,00,37,8.30
2015,05,04,00,38,8.30
2015,05,04,00,39,8.30
2015,05,04,00,40,8.30
2015,05,04,00,41,8.20
2015,05,04,00,42,8.20
2015,05,04,00,43,8.20
2015,05,04,00,44,8.20
2015,05,04,00,45,8.20
2015,05,04,00,46,8.20
2015,05,04,00,47,8.20
2015,05,04,00,48,8.10
2015,05,04,00,49,8.10
2015,05,04,00,50,8.10
2015,05,04,00,51,8.00
2015,05,04,00,52,8.00
2015,05,04,00,53,8.00
2015,05,04,00,54,7.90
2015,05,04,00,55,7.90
2015,05,04,00,56,7.80
2015,05,04,00,57,7.80
2015,05,04,00,58,7.80
2015,05,04,00,59,7.80
2015,05,04,01,00,7.80
2015,05,04,01,01,7.70
2015,05,04,01,02,7.70
2015,05,04,01,03,7.70
2015,05,04,01,04,7.70
2015,05,04,01,05,7.70
2015,05,04,01,06,7.60
2015,05,04,01,07,7.60
2015,05,04,01,08,7.60
2015,05,04,01,09,7.60
2015,05,04,01,10,7.50
2015,05,04,01,11,7.50
2015,05,04,01,12,7.50
2015,05,04,01,13,7.50
2015,05,04,01,14,7.40
2015,05,04,01,15,7.40
2015,05,04,01,16,7.40
2015,05,04,01,17,7.30
2015,05,04,01,18,7.30
2015,05,04,01,19,7.30
2015,05,04,01,20,7.30
2015,05,04,01,21,7.30
2015,05,04,01,22,7.30
2015,05,04,01,23,7.30
2015,05,04,01,24,7.30
2015,05,04,01,25,7.30
2015,05,04,01,26,7.30
2015,05,04,01,27,7.30
2015,05,04,01,28,7.30
2015,05,04,01,29,7.30
2015,05,04,01,30,7.30
2015,05,04,01,31,7.30
2015,05,04,01,32,7.30
2015,05,04,01,33,7.30
2015,05,04,01,34,7.30
2015,05,04,01,35,7.30
2015,05,04,01,36,7.30
2015,05,04,01,37,7.30
2015,05,04,01,38,7.30
2015,05,04,01,39,7.30
2015,05,04,01,40,7.30
2015,05,04,01,41,7.30
2015,05,04,01,42,7.30
2015,05,04,01,43,7.30
2015,05,04,01,44,7.30
2015,05,04,01,45,7.30
2015,05,04,01,46,7.30
2015,05,04,01,47,7.30
2015,05,04,01,48,7.30
2015,05,04,01,49,7.20
2015,05,04,01,50,7.20
2015,05,04,01,51,7.20
2015,05,04,01,52,7.20
2015,05,04,01,53,7.20
2015,05,04,01,54,7.20
2015,05,04,01,55,7.20
2015,05,04,01,56,7.20
2015,05,04,01,57,7.10
2015,05,04,01,58,7.10
2015,05,04,01,59,7.10
2015,05,04,02,00,7.10
2015,05,04,02,01,7.00
2015,05,04,02,02,7.00
2015,05,04,02,03,7.00
2015,05,04,02,04,7.00
2015,05,04,02,05,7.00
2015,05,04,02,06,6.90
2015,05,04,02,07,6.90
2015,05,04,02,08,6.90
2015,05,04,02,09,6.90
2015,05,04,02,10,6.80
2015,05,04,02,11,6.80
2015,05,04,02,12,6.80
2015,05,04,02,13,6.80
2015,05,04,02,14,6.80
2015,05,04,02,15,6.80
2015,05,04,02,16,6.80
2015,05,04,02,17,6.80
2015,05,04,02,18,6.80
2015,05,04,02,19,6.80
2015,05,04,02,20,6.70
2015,05,04,02,21,6.70
2015,05,04,02,22,6.70
2015,05,04,02,23,6.70
2015,05,04,02,24,6.70
2015,05,04,02,25,6.70
2015,05,04,02,26,6.60
2015,05,04,02,27,6.60
2015,05,04,02,28,6.60
2015,05,04,02,29,6.60
2015,05,04,02,30,6.60
2015,05,04,02,31,6.60
2015,05,04,02,32,6.60
2015,05,04,02,33,6.60
2015,05,04,02,34,6.60
2015,05,04,02,35,6.60
2015,05,04,02,36,6.60
2015,05,04,02,37,6.60
2015,05,04,02,38,6.60
2015,05,04,02,39,6.60
2015,05,04,02,40,6.60
2015,05,04,02,41,6.50
2015,05,04,02,42,6.40
2015,05,04,02,43,6.40
2015,05,04,02,44,6.40
2015,05,04,02,45,6.40
2015,05,04,02,46,6.40
2015,05,04,02,47,6.40
2015,05,04,02,48,6.40
2015,05,04,02,49,6.40
2015,05,04,02,50,6.40
2015,05,04,02,51,6.30
2015,05,04,02,52,6.30
2015,05,04,02,53,6.30
2015,05,04,02,54,6.20
2015,05,04,02,55,6.20
2015,05,04,02,56,6.20
2015,05,04,02,57,6.20
2015,05,04,02,58,6.20
2015,05,04,02,59,6.20
2015,05,04,03,00,6.20
2015,05,04,03,01,6.20
2015,05,04,03,02,6.20
2015,05,04,03,03,6.20
2015,05,04,03,06,6.20
2015,05,04,03,07,6.20
2015,05,04,03,08,6.20
2015,05,04,03,09,6.20
2015,05,04,03,10,6.20
2015,05,04,03,11,6.20
2015,05,04,03,12,6.20
2015,05,04,03,13,6.20
2015,05,04,03,14,6.10
2015,05,04,03,15,6.10
2015,05,04,03,16,6.10
2015,05,04,03,17,6.10
2015,05,04,03,18,6.10
2015,05,04,03,19,6.00
2015,05,04,03,20,6.00
2015,05,04,03,21,6.00
2015,05,04,03,22,6.00
2015,05,04,03,23,6.00
2015,05,04,03,24,6.00
2015,05,04,03,25,6.00
2015,05,04,03,26,6.00
2015,05,04,03,27,6.00
2015,05,04,03,28,6.00
2015,05,04,03,29,6.00
2015,05,04,03,30,6.00
2015,05,04,03,31,6.00
2015,05,04,03,32,6.00
2015,05,04,03,33,6.00
2015,05,04,03,34,6.00
2015,05,04,03,35,6.00
2015,05,04,03,36,6.00
2015,05,04,03,37,6.00
2015,05,04,03,38,6.00
2015,05,04,03,39,5.90
2015,05,04,03,40,5.90
2015,05,04,03,41,5.90
2015,05,04,03,42,5.90
2015,05,04,03,43,5.90
2015,05,04,03,44,5.80
2015,05,04,03,45,5.80
2015,05,04,03,46,5.80
2015,05,04,03,47,5.80
2015,05,04,03,48,5.80
2015,05,04,03,49,5.80
2015,05,04,03,50,5.80
2015,05,04,03,51,5.80
2015,05,04,03,52,5.80
2015,05,04,03,53,5.80
2015,05,04,03,54,5.70
2015,05,04,03,55,5.70
2015,05,04,03,56,5.70
2015,05,04,03,57,5.70
2015,05,04,03,58,5.70
2015,05,04,03,59,5.70
2015,05,04,04,00,5.70
2015,05,04,04,01,5.70
2015,05,04,04,02,5.70
2015,05,04,04,03,5.70
2015,05,04,04,04,5.70
2015,05,04,04,05,5.70
2015,05,04,04,06,5.70
2015,05,04,04,07,5.70
2015,05,04,04,08,5.70
2015,05,04,04,09,5.70
2015,05,04,04,10,5.70
2015,05,04,04,11,5.70
2015,05,04,04,12,5.70
2015,05,04,04,13,5.70
2015,05,04,04,14,5.70
2015,05,04,04,15,5.60
2015,05,04,04,16,5.60
2015,05,04,04,17,5.60
2015,05,04,04,18,5.60
2015,05,04,04,19,5.60
2015,05,04,04,20,5.60
2015,05,04,04,21,5.60
2015,05,04,04,22,5.60
2015,05,04,04,23,5.50
2015,05,04,04,24,5.50
2015,05,04,04,25,5.50
2015,05,04,04,26,5.50
2015,05,04,04,27,5.50
2015,05,04,04,28,5.50
2015,05,04,04,29,5.50
2015,05,04,04,30,5.50
2015,05,04,04,31,5.50
2015,05,04,04,32,5.40
2015,05,04,04,33,5.40
2015,05,04,04,34,5.40
2015,05,04,04,35,5.40
2015,05,04,04,36,5.40
2015,05,04,04,37,5.40
2015,05,04,04,38,5.40
2015,05,04,04,39,5.40
2015,05,04,04,40,5.40
2015,05,04,04,41,5.40
2015,05,04,04,42,5.40
2015,05,04,04,43,5.40
2015,05,04,04,44,5.40
2015,05,04,04,45,5.40
2015,05,04,04,46,5.40
2015,05,04,04,47,5.40
2015,05,04,04,48,5.30
2015,05,04,04,49,5.30
2015,05,04,04,50,5.30
2015,05,04,04,51,5.30
2015,05,04,04,52,5.30
2015,05,04,04,53,5.30
2015,05,04,04,54,5.30
2015,05,04,04,55,5.30
2015,05,04,04,56,5.30
2015,05,04,04,57,5.30
2015,05,04,04,58,5.30
2015,05,04,04,59,5.30
2015,05,04,05,00,5.30
2015,05,04,05,01,5.30
2015,05,04,05,02,5.20
2015,05,04,05,03,5.20
2015,05,04,05,04,5.20
2015,05,04,05,05,5.20
2015,05,04,05,06,5.20
2015,05,04,05,07,5.20
2015,05,04,05,08,5.20
2015,05,04,05,09,5.20
2015,05,04,05,10,5.20
2015,05,04,05,11,5.20
2015,05,04,05,12,5.20
2015,05,04,05,13,5.20
2015,05,04,05,14,5.20
2015,05,04,05,15,5.20
2015,05,04,05,16,5.20
2015,05,04,05,17,5.20
2015,05,04,05,18,5.10
2015,05,04,05,19,5.10
2015,05,04,05,20,5.10
2015,05,04,05,21,5.10
2015,05,04,05,22,5.10
2015,05,04,05,23,5.10
2015,05,04,05,24,5.10
2015,05,04,05,25,5.10
2015,05,04,05,26,5.10
2015,05,04,05,27,5.10
2015,05,04,05,28,5.10
2015,05,04,05,29,5.10
2015,05,04,05,30,5.10
2015,05,04,05,31,5.10
2015,05,04,05,32,5.10
2015,05,04,05,33,5.10
2015,05,04,05,34,5.10
2015,05,04,05,35,5.10
2015,05,04,05,36,5.10
2015,05,04,05,37,5.10
2015,05,04,05,38,5.10
2015,05,04,05,39,5.10
2015,05,04,05,40,5.10
2015,05,04,05,41,5.10
2015,05,04,05,42,5.10
2015,05,04,05,43,5.10
2015,05,04,05,44,5.10
2015,05,04,05,45,5.10
2015,05,04,05,46,5.00
2015,05,04,05,47,4.90
2015,05,04,05,48,4.90
2015,05,04,05,49,4.90
2015,05,04,05,50,4.90
2015,05,04,05,51,4.90
2015,05,04,05,52,4.90
2015,05,04,05,53,4.90
2015,05,04,05,54,4.90
2015,05,04,05,55,4.90
2015,05,04,05,56,4.90
2015,05,04,05,57,4.90
2015,05,04,05,58,4.90
2015,05,04,05,59,4.90
2015,05,04,06,00,4.90
2015,05,04,06,01,4.90
2015,05,04,06,02,4.90
2015,05,04,06,03,4.90
2015,05,04,06,04,4.90
2015,05,04,06,05,4.90
2015,05,04,06,06,4.90
2015,05,04,06,07,4.90
2015,05,04,06,08,4.90
2015,05,04,06,09,4.90
2015,05,04,06,10,4.90
2015,05,04,06,11,4.90
2015,05,04,06,12,4.90
2015,05,04,06,13,4.90
2015,05,04,06,14,4.90
2015,05,04,06,15,4.90
2015,05,04,06,16,4.90
2015,05,04,06,17,4.90
2015,05,04,06,18,4.90
2015,05,04,06,19,4.90
2015,05,04,06,20,4.90
2015,05,04,06,21,4.90
2015,05,04,06,22,4.90
2015,05,04,06,23,5.00
2015,05,04,06,24,5.10
2015,05,04,06,25,5.10
2015,05,04,06,26,5.10
2015,05,04,06,27,5.10
2015,05,04,06,28,5.10
2015,05,04,06,29,5.10
2015,05,04,06,30,5.20
2015,05,04,06,31,5.20
2015,05,04,06,32,5.20
2015,05,04,06,33,5.20
2015,05,04,06,34,5.30
2015,05,04,06,35,5.30
2015,05,04,06,36,5.30
2015,05,04,06,37,5.30
2015,05,04,06,38,5.40
2015,05,04,06,39,5.50
2015,05,04,06,40,5.50
2015,05,04,06,41,5.50
2015,05,04,06,42,5.60
2015,05,04,06,43,5.60
2015,05,04,06,44,5.60
2015,05,04,06,45,5.70
2015,05,04,06,46,5.70
2015,05,04,06,47,5.70
2015,05,04,06,48,5.80
2015,05,04,06,49,5.90
2015,05,04,06,50,5.90
2015,05,04,06,51,6.00
2015,05,04,06,52,6.00
2015,05,04,06,53,6.10
2015,05,04,06,54,6.10
2015,05,04,06,55,6.20
2015,05,04,06,56,6.20
2015,05,04,06,57,6.20
2015,05,04,06,58,6.20
2015,05,04,06,59,6.30
2015,05,04,07,00,6.40
2015,05,04,07,01,6.50
2015,05,04,07,02,6.60
2015,05,04,07,03,6.70
2015,05,04,07,04,6.80
2015,05,04,07,05,6.90
2015,05,04,07,06,7.00
2015,05,04,07,07,7.00
2015,05,04,07,08,7.10
2015,05,04,07,09,7.20
2015,05,04,07,10,7.30
2015,05,04,07,11,7.40
2015,05,04,07,12,7.50
2015,05,04,07,13,7.60
2015,05,04,07,14,7.70
2015,05,04,07,15,7.70
2015,05,04,07,16,7.80
2015,05,04,07,17,7.80
2015,05,04,07,18,7.80
2015,05,04,07,19,7.90
2015,05,04,07,20,7.90
2015,05,04,07,21,8.00
2015,05,04,07,22,8.00
2015,05,04,07,23,8.00
2015,05,04,07,24,8.10
2015,05,04,07,25,8.20
2015,05,04,07,26,8.20
2015,05,04,07,27,8.20
2015,05,04,07,28,8.30
2015,05,04,07,29,8.30
2015,05,04,07,30,8.40
2015,05,04,07,31,8.50
2015,05,04,07,32,8.50
2015,05,04,07,33,8.70
2015,05,04,07,34,8.80
2015,05,04,07,35,8.90
2015,05,04,07,36,8.90
2015,05,04,07,37,9.00
2015,05,04,07,38,9.10
2015,05,04,07,39,9.10
2015,05,04,07,40,9.20
2015,05,04,07,41,9.20
2015,05,04,07,42,9.30
2015,05,04,07,43,9.30
2015,05,04,07,44,9.40
2015,05,04,07,45,9.50
2015,05,04,07,46,9.50
2015,05,04,07,47,9.60
2015,05,04,07,48,9.70
2015,05,04,07,49,9.80
2015,05,04,07,50,10.00
2015,05,04,07,51,10.10
2015,05,04,07,52,10.30
2015,05,04,07,53,10.40
2015,05,04,07,54,10.50
2015,05,04,07,55,10.70
2015,05,04,07,56,10.80
2015,05,04,07,57,10.90
2015,05,04,07,58,11.00
2015,05,04,07,59,11.10
2015,05,04,08,00,11.10
2015,05,04,08,01,11.20
2015,05,04,08,02,11.30
2015,05,04,08,03,11.40
2015,05,04,08,04,11.40
2015,05,04,08,05,11.40
2015,05,04,08,06,11.50
2015,05,04,08,07,11.60
2015,05,04,08,08,11.70
2015,05,04,08,09,11.70
2015,05,04,08,10,11.80
2015,05,04,08,11,11.80
2015,05,04,08,12,11.90
2015,05,04,08,13,11.90
2015,05,04,08,14,12.00
2015,05,04,08,15,12.00
2015,05,04,08,16,12.10
2015,05,04,08,17,12.10
2015,05,04,08,18,12.20
2015,05,04,08,19,12.20
2015,05,04,08,20,12.30
2015,05,04,08,21,12.30
2015,05,04,08,22,12.40
2015,05,04,08,23,12.40
2015,05,04,08,24,12.50
2015,05,04,08,25,12.60
2015,05,04,08,26,12.60
2015,05,04,08,27,12.70
2015,05,04,08,28,12.70
2015,05,04,08,29,12.70
2015,05,04,08,30,12.70
2015,05,04,08,31,12.80
2015,05,04,08,32,12.80
2015,05,04,08,33,12.80
2015,05,04,08,34,12.80
2015,05,04,08,35,12.90
2015,05,04,08,36,12.90
2015,05,04,08,37,13.00
2015,05,04,08,38,13.00
2015,05,04,08,39,13.00
2015,05,04,08,40,13.00
2015,05,04,08,41,13.10
2015,05,04,08,42,13.10
2015,05,04,08,43,13.20
2015,05,04,08,44,13.20
2015,05,04,08,45,13.20
2015,05,04,08,46,13.30
2015,05,04,08,47,13.30
2015,05,04,08,48,13.30
2015,05,04,08,49,13.30
2015,05,04,08,50,13.30
2015,05,04,08,51,13.30
2015,05,04,08,52,13.30
2015,05,04,08,53,13.30
2015,05,04,08,54,13.30
2015,05,04,08,55,13.30
2015,05,04,08,56,13.30
2015,05,04,08,57,13.30
2015,05,04,08,58,13.40
2015,05,04,08,59,13.40
2015,05,04,09,00,13.50
2015,05,04,09,01,13.50
2015,05,04,09,02,13.60
2015,05,04,09,03,13.60
2015,05,04,09,04,13.70
2015,05,04,09,05,13.70
2015,05,04,09,06,13.70
2015,05,04,09,07,13.70
2015,05,04,09,08,13.70
2015,05,04,09,09,13.70
2015,05,04,09,10,13.70
2015,05,04,09,11,13.70
2015,05,04,09,12,13.70
2015,05,04,09,13,13.70
2015,05,04,09,14,13.70
2015,05,04,09,15,13.70
2015,05,04,09,16,13.70
2015,05,04,09,17,13.70
2015,05,04,09,18,13.70
2015,05,04,09,19,13.70
2015,05,04,09,20,13.70
2015,05,04,09,21,13.70
2015,05,04,09,22,13.70
2015,05,04,09,23,13.70
2015,05,04,09,24,13.80
2015,05,04,09,25,13.80
2015,05,04,09,26,13.90
2015,05,04,09,27,13.90
2015,05,04,09,28,13.90
2015,05,04,09,29,13.90
2015,05,04,09,30,14.00
2015,05,04,09,31,14.00
2015,05,04,09,32,14.10
2015,05,04,09,33,14.10
2015,05,04,09,34,14.10
2015,05,04,09,35,14.20
2015,05,04,09,36,14.20
2015,05,04,09,37,14.20
2015,05,04,09,38,14.20
2015,05,04,09,39,14.30
2015,05,04,09,40,14.20
2015,05,04,09,41,14.20
2015,05,04,09,42,14.20
2015,05,04,09,43,14.20
2015,05,04,09,44,14.20
2015,05,04,09,45,14.20
2015,05,04,09,46,14.20
2015,05,04,09,47,14.10
2015,05,04,09,48,14.10
2015,05,04,09,49,14.10
2015,05,04,09,50,14.10
2015,05,04,09,51,14.20
2015,05,04,09,52,14.20
2015,05,04,09,53,14.20
2015,05,04,09,54,14.20
2015,05,04,09,55,14.20
2015,05,04,09,56,14.20
2015,05,04,09,57,14.20
2015,05,04,09,58,14.20
2015,05,04,09,59,14.10
2015,05,04,10,00,14.10
2015,05,04,10,01,14.10
2015,05,04,10,02,14.10
2015,05,04,10,03,14.10
2015,05,04,10,04,14.10
2015,05,04,10,05,14.10
2015,05,04,10,06,14.10
2015,05,04,10,07,14.10
2015,05,04,10,08,14.10
2015,05,04,10,09,14.00
2015,05,04,10,10,14.00
2015,05,04,10,11,13.90
2015,05,04,10,12,13.90
2015,05,04,10,13,13.80
2015,05,04,10,14,13.80
2015,05,04,10,15,13.70
2015,05,04,10,16,13.70
2015,05,04,10,17,13.70
2015,05,04,10,18,13.60
2015,05,04,10,19,13.60
2015,05,04,10,20,13.70
2015,05,04,10,21,13.70
2015,05,04,10,22,13.70
2015,05,04,10,23,13.70
2015,05,04,10,24,13.70
2015,05,04,10,25,13.70
2015,05,04,10,26,13.70
2015,05,04,10,27,13.70
2015,05,04,10,28,13.70
2015,05,04,10,29,13.80
2015,05,04,10,30,13.80
2015,05,04,10,31,13.90
2015,05,04,10,32,13.90
2015,05,04,10,33,14.00
2015,05,04,10,34,14.00
2015,05,04,10,35,14.00
2015,05,04,10,36,14.10
2015,05,04,10,37,14.10
2015,05,04,10,38,14.10
2015,05,04,10,39,14.10
2015,05,04,10,40,14.20
2015,05,04,10,41,14.20
2015,05,04,10,42,14.20
2015,05,04,10,43,14.20
2015,05,04,10,44,14.20
2015,05,04,10,45,14.20
2015,05,04,10,46,14.20
2015,05,04,10,47,14.20
2015,05,04,10,48,14.20
2015,05,04,10,49,14.20
2015,05,04,10,50,14.20
2015,05,04,10,51,14.30
2015,05,04,10,52,14.30
2015,05,04,10,53,14.30
2015,05,04,10,54,14.30
2015,05,04,10,55,14.20
2015,05,04,10,56,14.20
2015,05,04,10,57,14.20
2015,05,04,10,58,14.40
2015,05,04,10,59,14.50
2015,05,04,11,00,14.60
2015,05,04,11,01,14.70
2015,05,04,11,02,14.80
2015,05,04,11,03,14.80
2015,05,04,11,04,14.80
2015,05,04,11,05,14.80
2015,05,04,11,06,14.80
2015,05,04,11,07,14.80
2015,05,04,11,08,14.70
2015,05,04,11,09,14.60
2015,05,04,11,10,14.50
2015,05,04,11,11,14.50
2015,05,04,11,12,14.50
2015,05,04,11,13,14.50
2015,05,04,11,14,14.40
2015,05,04,11,15,14.40
2015,05,04,11,16,14.40
2015,05,04,11,17,14.20
2015,05,04,11,18,14.30
2015,05,04,11,19,14.30
2015,05,04,11,20,14.40
2015,05,04,11,21,14.40
2015,05,04,11,22,14.50
2015,05,04,11,23,14.50
2015,05,04,11,24,14.60
2015,05,04,11,25,14.60
2015,05,04,11,26,14.70
2015,05,04,11,27,14.80
2015,05,04,11,28,14.80
2015,05,04,11,29,14.80
2015,05,04,11,30,14.80
2015,05,04,11,31,14.80
2015,05,04,11,32,14.80
2015,05,04,11,33,14.80
2015,05,04,11,34,14.80
2015,05,04,11,35,14.80
2015,05,04,11,36,14.80
2015,05,04,11,37,14.80
2015,05,04,11,38,14.90
2015,05,04,11,39,14.90
2015,05,04,11,40,14.90
2015,05,04,11,41,14.90
2015,05,04,11,42,14.80
2015,05,04,11,43,14.80
2015,05,04,11,44,14.80
2015,05,04,11,45,14.70
2015,05,04,11,46,14.80
2015,05,04,11,47,14.80
2015,05,04,11,48,14.80
2015,05,04,11,49,14.90
2015,05,04,11,50,15.00
2015,05,04,11,51,15.00
2015,05,04,11,52,15.00
2015,05,04,11,53,15.00
2015,05,04,11,54,14.90
2015,05,04,11,55,14.90
2015,05,04,11,56,14.80
2015,05,04,11,57,14.80
2015,05,04,11,58,14.80
2015,05,04,11,59,14.80
2015,05,04,12,00,14.80
2015,05,04,12,01,14.90
2015,05,04,12,02,15.00
2015,05,04,12,03,14.90
2015,05,04,12,04,14.90
2015,05,04,12,05,14.90
2015,05,04,12,06,14.80
2015,05,04,12,07,14.80
2015,05,04,12,08,14.80
2015,05,04,12,09,14.80
2015,05,04,12,10,14.80
2015,05,04,12,11,14.80
2015,05,04,12,12,14.80
2015,05,04,12,13,14.90
2015,05,04,12,14,14.90
2015,05,04,12,15,14.80
2015,05,04,12,16,14.80
2015,05,04,12,17,14.80
2015,05,04,12,18,14.80
2015,05,04,12,19,14.80
2015,05,04,12,20,14.90
2015,05,04,12,21,15.00
2015,05,04,12,22,15.00
2015,05,04,12,23,15.10
2015,05,04,12,24,15.00
2015,05,04,12,25,14.90
2015,05,04,12,26,14.90
2015,05,04,12,27,15.00
2015,05,04,12,28,15.00
2015,05,04,12,29,15.00
2015,05,04,12,30,15.00
2015,05,04,12,31,15.00
2015,05,04,12,32,15.00
2015,05,04,12,33,15.00
2015,05,04,12,34,15.00
2015,05,04,12,35,15.00
2015,05,04,12,36,15.00
2015,05,04,12,37,15.00
2015,05,04,12,38,15.10
2015,05,04,12,39,15.10
2015,05,04,12,40,15.10
2015,05,04,12,41,15.10
2015,05,04,12,42,15.10
2015,05,04,12,43,15.00
2015,05,04,12,44,15.00
2015,05,04,12,45,15.00
2015,05,04,12,46,15.00
2015,05,04,12,47,15.00
2015,05,04,12,48,15.00
2015,05,04,12,49,15.00
2015,05,04,12,50,15.20
2015,05,04,12,51,15.20
2015,05,04,12,52,15.30
2015,05,04,12,53,15.40
2015,05,04,12,54,15.50
2015,05,04,12,55,15.70
2015,05,04,12,56,15.80
2015,05,04,12,57,15.80
2015,05,04,12,58,15.80
2015,05,04,12,59,15.80
2015,05,04,13,00,15.90
2015,05,04,13,01,15.90
2015,05,04,13,02,16.00
2015,05,04,13,03,16.10
2015,05,04,13,04,16.10
2015,05,04,13,05,16.10
2015,05,04,13,06,16.10
2015,05,04,13,07,16.10
2015,05,04,13,08,16.10
2015,05,04,13,09,16.10
2015,05,04,13,10,16.10
2015,05,04,13,11,16.10
2015,05,04,13,12,16.10
2015,05,04,13,13,16.00
2015,05,04,13,14,15.90
2015,05,04,13,15,15.90
2015,05,04,13,16,15.80
2015,05,04,13,17,15.80
2015,05,04,13,18,15.80
2015,05,04,13,19,15.80
2015,05,04,13,20,15.80
2015,05,04,13,21,15.80
2015,05,04,13,22,15.80
2015,05,04,13,23,15.80
2015,05,04,13,24,15.80
2015,05,04,13,25,15.80
2015,05,04,13,26,15.80
2015,05,04,13,27,15.90
2015,05,04,13,28,16.00
2015,05,04,13,29,16.10
2015,05,04,13,30,16.20
2015,05,04,13,31,16.30
2015,05,04,13,32,16.30
2015,05,04,13,33,16.30
2015,05,04,13,34,16.40
2015,05,04,13,35,16.40
2015,05,04,13,36,16.40
2015,05,04,13,37,16.40
2015,05,04,13,38,16.40
2015,05,04,13,39,16.40
2015,05,04,13,40,16.40
2015,05,04,13,41,16.40
2015,05,04,13,42,16.40
2015,05,04,13,43,16.50
2015,05,04,13,44,16.60
2015,05,04,13,45,16.70
2015,05,04,13,46,16.70
2015,05,04,13,47,16.70
2015,05,04,13,48,16.80
2015,05,04,13,49,16.90
2015,05,04,13,50,17.00
2015,05,04,13,51,17.10
2015,05,04,13,52,17.10
2015,05,04,13,53,17.20
2015,05,04,13,54,17.30
2015,05,04,13,55,17.30
2015,05,04,13,56,17.30
2015,05,04,13,57,17.20
2015,05,04,13,58,17.20
2015,05,04,13,59,17.20
2015,05,04,14,00,17.20
2015,05,04,14,01,17.10
2015,05,04,14,02,17.10
2015,05,04,14,03,17.10
2015,05,04,14,04,17.00
2015,05,04,14,05,17.00
2015,05,04,14,06,16.90
2015,05,04,14,07,16.90
2015,05,04,14,08,16.90
2015,05,04,14,09,16.80
2015,05,04,14,10,16.90
2015,05,04,14,11,16.90
2015,05,04,14,12,16.90
2015,05,04,14,13,16.90
2015,05,04,14,14,16.90
2015,05,04,14,15,17.00
2015,05,04,14,16,17.00
2015,05,04,14,17,17.20
2015,05,04,14,18,17.30
2015,05,04,14,19,17.50
2015,05,04,14,20,17.50
2015,05,04,14,21,17.60
2015,05,04,14,22,17.60
2015,05,04,14,23,17.50
2015,05,04,14,24,17.50
2015,05,04,14,25,17.40
2015,05,04,14,26,17.40
2015,05,04,14,27,17.40
2015,05,04,14,28,17.40
2015,05,04,14,29,17.30
2015,05,04,14,30,17.30
2015,05,04,14,31,17.10
2015,05,04,14,32,17.00
2015,05,04,14,33,16.90
2015,05,04,14,34,16.80
2015,05,04,14,35,16.80
2015,05,04,14,36,16.80
2015,05,04,14,37,16.90
2015,05,04,14,38,16.90
2015,05,04,14,39,16.90
2015,05,04,14,40,17.00
2015,05,04,14,41,17.00
2015,05,04,14,42,17.00
2015,05,04,14,43,17.10
2015,05,04,14,44,17.10
2015,05,04,14,45,17.10
2015,05,04,14,46,17.10
2015,05,04,14,47,17.00
2015,05,04,14,48,17.00
2015,05,04,14,49,17.10
2015,05,04,14,50,17.20
2015,05,04,14,51,17.30
2015,05,04,14,52,17.40
2015,05,04,14,53,17.40
2015,05,04,14,54,17.40
2015,05,04,14,55,17.40
2015,05,04,14,56,17.40
2015,05,04,14,57,17.40
2015,05,04,14,58,17.40
2015,05,04,14,59,17.40
2015,05,04,15,00,17.30
2015,05,04,15,01,17.20
2015,05,04,15,02,17.20
2015,05,04,15,03,17.20
2015,05,04,15,04,17.10
2015,05,04,15,05,17.00
2015,05,04,15,06,17.00
2015,05,04,15,07,16.90
2015,05,04,15,08,16.90
2015,05,04,15,09,16.90
2015,05,04,15,10,16.90
2015,05,04,15,11,16.80
2015,05,04,15,12,16.80
2015,05,04,15,13,16.80
2015,05,04,15,14,16.70
2015,05,04,15,15,16.70
2015,05,04,15,16,16.70
2015,05,04,15,17,16.60
2015,05,04,15,18,16.60
2015,05,04,15,19,16.50
2015,05,04,15,20,16.40
2015,05,04,15,21,16.30
2015,05,04,15,22,16.20
2015,05,04,15,23,16.10
2015,05,04,15,24,16.10
2015,05,04,15,25,16.10
2015,05,04,15,26,16.00
2015,05,04,15,27,15.90
2015,05,04,15,28,15.90
2015,05,04,15,29,15.90
2015,05,04,15,30,15.80
2015,05,04,15,31,15.80
2015,05,04,15,32,15.80
2015,05,04,15,33,15.80
2015,05,04,15,34,15.80
2015,05,04,15,35,15.80
2015,05,04,15,36,15.80
2015,05,04,15,37,15.80
2015,05,04,15,38,15.70
2015,05,04,15,39,15.60
2015,05,04,15,40,15.50
2015,05,04,15,41,15.40
2015,05,04,15,42,15.40
2015,05,04,15,43,15.30
2015,05,04,15,44,15.30
2015,05,04,15,45,15.20
2015,05,04,15,46,15.20
2015,05,04,15,47,15.20
2015,05,04,15,48,15.10
2015,05,04,15,49,15.10
2015,05,04,15,50,15.10
2015,05,04,15,51,15.10
2015,05,04,15,52,15.00
2015,05,04,15,53,14.90
2015,05,04,15,54,14.80
2015,05,04,15,55,14.80
2015,05,04,15,56,14.80
2015,05,04,15,57,14.80
2015,05,04,15,58,14.80
2015,05,04,15,59,14.80
2015,05,04,16,00,14.80
2015,05,04,16,01,14.70
2015,05,04,16,02,14.70
2015,05,04,16,03,14.70
2015,05,04,16,04,14.60
2015,05,04,16,05,14.60
2015,05,04,16,06,14.60
2015,05,04,16,07,14.60
2015,05,04,16,08,14.60
2015,05,04,16,09,14.60
2015,05,04,16,10,14.70
2015,05,04,16,11,14.70
2015,05,04,16,12,14.80
2015,05,04,16,13,14.80
2015,05,04,16,14,14.70
2015,05,04,16,15,14.70
2015,05,04,16,16,14.70
2015,05,04,16,17,14.70
2015,05,04,16,18,14.70
2015,05,04,16,19,14.70
2015,05,04,16,20,14.80
2015,05,04,16,21,14.80
2015,05,04,16,22,14.90
2015,05,04,16,23,15.00
2015,05,04,16,24,15.10
2015,05,04,16,25,15.20
2015,05,04,16,26,15.30
2015,05,04,16,27,15.30
2015,05,04,16,28,15.30
2015,05,04,16,29,15.40
2015,05,04,16,30,15.40
2015,05,04,16,31,15.40
2015,05,04,16,32,15.40
2015,05,04,16,33,15.30
2015,05,04,16,34,15.30
2015,05,04,16,35,15.20
2015,05,04,16,36,15.10
2015,05,04,16,37,15.00
2015,05,04,16,38,15.00
2015,05,04,16,39,14.90
2015,05,04,16,40,14.80
2015,05,04,16,41,14.70
2015,05,04,16,42,14.60
2015,05,04,16,43,14.50
2015,05,04,16,44,14.40
2015,05,04,16,45,14.30
2015,05,04,16,46,14.20
2015,05,04,16,47,14.20
2015,05,04,16,48,14.20
2015,05,04,16,49,14.20
2015,05,04,16,50,14.20
2015,05,04,16,51,14.10
2015,05,04,16,52,14.00
2015,05,04,16,53,14.00
2015,05,04,16,54,14.00
2015,05,04,16,55,14.10
2015,05,04,16,56,14.20
2015,05,04,16,57,14.20
2015,05,04,16,58,14.20
2015,05,04,16,59,14.20
2015,05,04,17,00,14.10
2015,05,04,17,01,14.00
2015,05,04,17,02,14.00
2015,05,04,17,03,13.90
2015,05,04,17,04,13.80
2015,05,04,17,05,13.70
2015,05,04,17,06,13.70
2015,05,04,17,07,13.70
2015,05,04,17,08,13.60
2015,05,04,17,09,13.60
2015,05,04,17,10,13.60
2015,05,04,17,11,13.60
2015,05,04,17,12,13.60
2015,05,04,17,13,13.70
2015,05,04,17,14,13.70
2015,05,04,17,15,13.70
2015,05,04,17,16,13.70
2015,05,04,17,17,13.70
2015,05,04,17,18,13.70
2015,05,04,17,19,13.60
2015,05,04,17,20,13.60
2015,05,04,17,21,13.50
2015,05,04,17,22,13.50
2015,05,04,17,23,13.40
2015,05,04,17,24,13.30
2015,05,04,17,25,13.30
2015,05,04,17,26,13.30
2015,05,04,17,27,13.30
2015,05,04,17,28,13.30
2015,05,04,17,29,13.30
2015,05,04,17,30,13.30
2015,05,04,17,31,13.20
2015,05,04,17,32,13.20
2015,05,04,17,33,13.10
2015,05,04,17,34,13.10
2015,05,04,17,35,13.00
2015,05,04,17,36,13.00
2015,05,04,17,37,13.00
2015,05,04,17,38,13.00
2015,05,04,17,39,13.00
2015,05,04,17,40,13.00
2015,05,04,17,41,13.00